Weather History for KIZG - February, 2013

Change the Weather History Date:

Saturday, February 2, 2013

  Actual Average Record
Temperature  
Mean Temperature 16 °F -  
Max Temperature 23 °F 30 °F 45 °F (1998)
Min Temperature 10 °F 5 °F -9 °F (2005)
Degree Days  
Heating Degree Days 48    
Moisture  
Dew Point 3 °F    
Average Humidity 56    
Maximum Humidity 88    
Minimum Humidity 38    
Precipitation  
Precipitation 0.00 in - - ()
Sea Level Pressure  
Sea Level Pressure 30.09 in    
Wind  
Wind Speed 6 mph (West)    
Max Wind Speed 12 mph    
Max Gust Speed 24 mph    
Visibility 10 miles    
Events      
Averages and records for this station are not official NWS values.
T = Trace of Precipitation, MM = Missing Value Source: NWS Daily Summary

Daily Weather History Graph

Daily Weather History Graph

Search for Another Location

Airport or City:

Trip Planner

Search our weather history database for the weather conditions in past years. The results will help you decide how hot, cold, wet, or windy it might be!

Date:

Astronomy

Feb. 02, 2013 Rise Set
Actual Time 6:59 AM EST 4:55 PM EST
Civil Twilight 6:29 AM EST 5:26 PM EST
Nautical Twilight 5:54 AM EST 6:00 PM EST
Astronomical Twilight 5:20 AM EST 6:34 PM EST
Moon No Moon Rise 9:52 AM EST (2/2)
Length of Visible Light 10h 57m
Length of Day
9h 56m
Waning Gibbous, 60% of the Moon is Illuminated
Feb 2
Waning Gibbous
Feb 3
Last Quarter
Feb 10
New
Feb 17
First Quarter
Feb 25
Full

Hourly Weather History & Observations

Time (EST) Temp. Windchill Dew Point Humidity Pressure Visibility Wind Dir Wind Speed Gust Speed Precip Events Conditions
12:54 AM 15.1 °F 2.5 °F -2.0 °F 47% 30.02 in 10.0 mi West 10.4 mph 16.1 mph N/A   Clear
1:54 AM 14.0 °F 2.9 °F -2.0 °F 49% 30.05 in 10.0 mi West 8.1 mph - N/A   Clear
2:54 AM 12.9 °F -0.9 °F -0.9 °F 54% 30.07 in 10.0 mi WNW 11.5 mph 23.0 mph N/A   Clear
3:54 AM 12.9 °F 1.6 °F -2.9 °F 49% 30.09 in 10.0 mi West 8.1 mph 24.2 mph N/A   Partly Cloudy
4:54 AM 12.0 °F -1.3 °F -4.0 °F 49% 30.11 in 10.0 mi West 10.4 mph - N/A   Clear
5:54 AM 10.9 °F 4.7 °F -4.0 °F 51% 30.13 in 10.0 mi Variable 3.5 mph - N/A   Clear
7:54 AM 12.0 °F - -2.0 °F 53% 30.16 in 10.0 mi Calm Calm - N/A   Clear
8:54 AM 16.0 °F - -2.0 °F 45% 30.17 in 10.0 mi Calm Calm - N/A   Clear
9:54 AM 18.0 °F - -0.9 °F 44% 30.17 in 10.0 mi Calm Calm - N/A   Clear
10:54 AM 19.9 °F 14.9 °F -0.9 °F 40% 30.15 in 10.0 mi West 3.5 mph - N/A   Clear
11:54 AM 21.9 °F 15.7 °F -0.0 °F 38% 30.12 in 10.0 mi Variable 4.6 mph - N/A   Mostly Cloudy
12:54 PM 23.0 °F 17.0 °F 3.0 °F 42% 30.10 in 10.0 mi Variable 4.6 mph - N/A   Overcast
1:54 PM 21.9 °F 13.4 °F 3.0 °F 44% 30.09 in 10.0 mi Variable 6.9 mph - N/A   Overcast
2:54 PM 21.9 °F 12.5 °F 3.0 °F 44% 30.09 in 10.0 mi SW 8.1 mph 16.1 mph N/A   Overcast
3:54 PM 21.9 °F 11.7 °F 3.9 °F 46% 30.07 in 10.0 mi SSW 9.2 mph - 0.00 in   Overcast
4:54 PM 21.0 °F - 5.0 °F 50% 30.07 in 10.0 mi Calm Calm - 0.00 in   Overcast
5:54 PM 21.0 °F - 9.0 °F 60% 30.08 in 10.0 mi Calm Calm - N/A   Overcast
6:54 PM 19.9 °F - 10.0 °F 65% 30.08 in 10.0 mi Calm Calm - N/A   Overcast
7:54 PM 18.0 °F - 12.0 °F 78% 30.07 in 10.0 mi Calm Calm - N/A   Overcast
8:54 PM 18.0 °F - 12.9 °F 81% 30.07 in 10.0 mi Calm Calm - 0.00 in   Overcast
9:54 PM 17.1 °F - 12.9 °F 84% 30.06 in 10.0 mi Calm Calm - N/A   Overcast
10:54 PM 17.1 °F - 12.9 °F 84% 30.05 in 10.0 mi Calm Calm - N/A   Overcast
11:54 PM 15.1 °F - 12.0 °F 88% 30.05 in 10.0 mi Calm Calm - N/A   Overcast